Regional Weather Roundup
Issued by NWS

Home | Current Version | Previous Version | Text Only | Print | Product List | Glossary Off
Versions: 1 2 3 4 5 6 7 8 9 10 11 12 13 14 15 16 17 18 19 20 21 22 23 24 25 26 27 28 29 30 31 32 33 34 35 36 37 38 39 40 41 42 43 44 45 46 47 48 49 50

000
ASUS43 KBIS 282310
RWRND

NORTH DAKOTA REGIONAL WEATHER ROUNDUP
NATIONAL WEATHER SERVICE BISMARCK ND
600 PM CDT SAT MAY 28 2016

NOTE: "FAIR" INDICATES FEW OR NO CLOUDS BELOW 12,000 FEET WITH NO
SIGNIFICANT WEATHER AND/OR OBSTRUCTIONS TO VISIBILITY.


NDZ001>003-009>011-017-290000-
NORTHWEST NORTH DAKOTA

CITY           SKY/WX    TMP DP  RH WIND       PRES   REMARKS
WILLISTON      LGT RAIN  60  55  83 CALM      29.90R
MINOT          MOSUNNY   71  52  50 MISG      29.87S
MINOT AFB      MOSUNNY   66  52  60 NE5       29.87S
$$

NDZ018>021-031>035-040>046-290000-
SOUTHWEST NORTH DAKOTA

CITY           SKY/WX    TMP DP  RH WIND       PRES   REMARKS
BISMARCK       PTSUNNY   70  51  51 CALM      29.87R
DICKINSON      CLOUDY    64  49  57 W3        29.89R
GARRISON         N/A     67  51  56 N5        29.88R
HETTINGER ARPT SUNNY     65  53  65 NE6       29.91F
$$

NDZ004>008-012>016-024-026-027-054-290000-
NORTHEAST NORTH DAKOTA

CITY           SKY/WX    TMP DP  RH WIND       PRES   REMARKS
GRAND FORKS    LGT RAIN  68  57  68 NE10      29.81S
GRND FRKS AFB  CLOUDY    68  55  64 E9        29.83R
DEVILS LAKE    CLOUDY    68  57  68 NW8       29.86S
$$

NDZ022-023-025-028>030-036>039-047>053-290000-
SOUTHEAST NORTH DAKOTA

CITY           SKY/WX    TMP DP  RH WIND       PRES   REMARKS
FARGO          CLOUDY    66  57  72 N12       29.81S
JAMESTOWN      CLOUDY    70  54  56 NW9       29.83S
$$




USA.gov is the U.S. government's official web portal to all federal, state and local government web resources and services.